Location: Arroyo Retuerta
(40.5469°N, 4.3534°W)
Time: 05:51:46
(UTC+00:00)

Cosmos 1354 Rocket - Pass Details

Date: 01 June 2020
Orbit: 764 x 784 km, 74.0° (Epoch: 05 July)

Event Time Altitude Azimuth Distance (km) Brightness Sun altitude
Rises 22:48:13 0° 346° (NNW) 3,262 8.7 -24.0°
Reaches altitude 10° 22:50:41 10° 352° (N) 2,334 7.5 -24.2°
Maximum altitude 22:55:50 48° 67° (ENE) 1,008 4.5 -24.6°
Enters shadow 22:56:34 45° 93° (E) 1,053 4.5 -24.6°
